Hourly Data Report for August 05, 2013

All times are specified in Local Standard Time (LST). Add 1 hour to adjust for Daylight Saving Time where and when it is observed.

VICTORIA INTL A
BRITISH COLUMBIA

48°38'50.000" N
123°25'33.000" W
19.50 m
1018621
71799
YYJ

Download Data

Hourly Data (August 2013)
Hourly Data Report for August 5, 2013
Temp Definition
°C
Dew Point Temp Definition
°C
Rel Hum Definition
%
Wind Dir Definition
10's deg

Wind Spd Definition
km/h
Visibility Definition
km
Stn Press Definition
kPa
Hmdx Definition


Wind Chill Definition


Weather Definition


TIME
00:00 Legend Double Dagger 14.1 11.6 85 32 1 48.3 101.32     LegendNANA
01:00 Legend Double Dagger 14.6 12.1 85 30 5 48.3 101.30     Clear
02:00 Legend Double Dagger 14.2 12.8 91 11 3 48.3 101.29     LegendNANA
03:00 Legend Double Dagger 13.1 11.7 91 14 5 48.3 101.31     LegendNANA
04:00 Legend Double Dagger 12.2 11.3 94 12 3 48.3 101.32     Clear
05:00 Legend Double Dagger 12.0 11.4 96 17 5 48.3 101.36     LegendNANA
06:00 Legend Double Dagger 13.2 11.9 92 14 3 48.3 101.40     LegendNANA
07:00 Legend Double Dagger 15.9 13.6 86 19 2 48.3 101.42     Clear
08:00 Legend Double Dagger 19.8 13.1 65 3 6 48.3 101.43     LegendNANA
09:00 Legend Double Dagger 19.3 12.9 66 12 9 48.3 101.44     LegendNANA
10:00 Legend Double Dagger 19.4 12.3 63 12 10 48.3 101.44     Clear
11:00 Legend Double Dagger 18.9 12.9 68 12 15 48.3 101.43     LegendNANA
12:00 Legend Double Dagger 20.4 13.2 63 12 14 48.3 101.40     LegendNANA
13:00 Legend Double Dagger 21.1 13.6 62 12 17 48.3 101.36     Clear
14:00 Legend Double Dagger 21.3 13.6 61 12 17 48.3 101.32     LegendNANA
15:00 Legend Double Dagger 21.7 12.9 57 13 11 48.3 101.26     LegendNANA
16:00 Legend Double Dagger 21.0 12.3 57 12 14 48.3 101.20     Mainly Clear
17:00 Legend Double Dagger 20.1 10.9 55 10 9 48.3 101.15     LegendNANA
18:00 Legend Double Dagger 19.3 11.7 61 10 9 48.3 101.12     LegendNANA
19:00 Legend Double Dagger 18.0 11.4 65 9 5 48.3 101.11     Clear
20:00 Legend Double Dagger 16.1 11.3 73 9 5 48.3 101.14     LegendNANA
21:00 Legend Double Dagger 15.4 11.0 75 7 6 48.3 101.16     LegendNANA
22:00 Legend Double Dagger 13.5 10.9 84 10 4 48.3 101.18     Clear
23:00 Legend Double Dagger 12.6 10.2 85 13 5 48.3 101.19     LegendNANA

Notes on Data Quality.

Legend

  • E = Estimated
  • M = Missing
  • NA = Not Available
  • ‡ = Partner data that is not subject to review by the National Climate Archives
Date modified: